HAWK-A

Last updated on July 6, 2021, 3:44 p.m. UTC

1 43765U 18099H   21186.86875877  .00000542  00000-0  52885-4 0  9999
2 43765  97.6615 257.9453 0014664 359.5885   0.5321 14.96325409141303
UTC
Height (km)
Latitude
Longitude
Inclination
Orbital Period
UTC large
Height (km)
Speed (km/s)
/
Latitude / Longitude
Inclination (degrees)
Orbital Period (minutes)
Azimuth
Elevation
Range (km)
Doppler Factor
iOS Compass Heading
iOS Angle